Powrót do katalogu

ASBM-2

AktywnyMilitariaHEO
NORAD 60423·PAYLOAD·🇳🇴 Norway

Wystrzelony Aug 12, 2024 z Vandenberg Space Force Base

Loading…

Następne Przeloty (najbliższe 24 godziny)

TLE

ŚwieżeSource: Space-Track

Epoka: Sep 8, 2026, 06:16 UTC

1 60423U 24143B   26251.26169309 -.00000040  00000-0  00000-0 0  9996
2 60423  62.9077  42.3116 5627340 269.4333  29.5032  1.50425200 12858

Śledź ASBM-2 w czasie rzeczywistym z AllMySat

Download on the App Store